www.pogodaiklimat.ru

Погода и климат >> Архив погоды >> Россия >> Московская область >> Железнодорожный АМС


ПОГОДА в Железнодорожном АМС

  • Прогноз погоды в Железнодорожном АМС
  • Монитор погоды в Железнодорожном АМС

АРХИВ ПОГОДЫ в Железнодорожном АМС

Время (UTC), дата Ветер
(напр.,м/с)
 
Видим.   Явления Облачность Т
(С)
Тd
(С)
f
(%)
Тe
(С)
Тes
(С)
Комфортность P
(гПа)
Po
(гПа)
Тmin
(С)
Tmax
(С)
R
(мм)
R24
(мм)
S
(см)
18 10.07 штиль 0 н/о н/о +14.8 +10.7 76 +15 +15 999.4 982.1 +19.6
03 11.07 штиль 0 н/о н/о +13.5 +12.2 92 +13 +13 999.0 981.7 +13.0 1
06 11.07 штиль 0 н/о н/о +14.3 +12.5 89 +14 +14 1000.2 982.9 +13.0 3
09 11.07 штиль 0 н/о н/о +15.2 +10.2 72 +15 +15 1001.4 984.1
12 11.07 С 1 н/о н/о +16.9 +10.2 65 +18 +18 1002.2 985.0
15 11.07 штиль 0 н/о н/о +15.8 +10.0 68 +16 +16 1003.1 985.9 1
18 11.07 штиль 0 н/о н/о +13.5 +9.7 78 +13 +13 1004.1 986.6 +17.5
21 11.07 штиль 0 н/о н/о +12.0 +10.7 92 +11 +11 1004.7 987.2
00 12.07 штиль 0 н/о н/о +10.8 +9.5 92 +10 +10 1005.1 987.5
03 12.07 штиль 0 н/о н/о +10.5 +9.2 92 +10 +10 1006.0 988.3 +10.4 9
06 12.07 СВ 1 н/о н/о +11.4 +9.0 85 +11 +11 1006.9 989.3 +10.4 9
09 12.07 СВ 1 н/о н/о +14.8 +8.5 66 +15 +15 1007.2 989.8
12 12.07 штиль 0 н/о н/о +13.7 +10.7 82 +13 +13 1007.8 990.3
15 12.07 штиль 0 н/о н/о +14.2 +10.2 77 +14 +14 1008.1 990.6 1
18 12.07 штиль 0 н/о н/о +12.8 +10.2 84 +12 +12 1008.5 990.9 +15.4 1
21 12.07 штиль 0 н/о н/о +11.9 +10.2 89 +11 +11 1008.6 991.0
00 13.07 штиль 0 н/о н/о +11.5 +10.2 92 +11 +11 1008.3 990.6
03 13.07 штиль 0 н/о н/о +11.6 +10.2 91 +11 +11 1008.6 990.9 +11.5 0.5
06 13.07 В 1 н/о н/о +14.4 +8.0 65 +15 +15 1009.0 991.5 +11.5 0.5
09 13.07 штиль 0 н/о н/о +15.5 +9.4 67 +15 +15 1009.1 991.7
12 13.07 штиль 0 н/о н/о +16.9 +8.4 57 +17 +17 1009.3 992.0
15 13.07 штиль 0 н/о н/о +17.2 +8.7 57 +17 +17 1009.5 992.2
18 13.07 штиль 0 н/о н/о +14.1 +10.0 76 +14 +14 1010.4 992.9 +18.7
21 13.07 штиль 0 н/о н/о +10.8 +9.2 90 +10 +10 1011.0 993.3
00 14.07 штиль 0 н/о н/о +8.7 +7.5 92 +8 +8 1011.4 993.5
03 14.07 штиль 0 н/о н/о +10.2 +9.2 94 +9 +9 1011.4 993.6 +8.2
06 14.07 штиль 0 н/о н/о +16.4 +9.5 64 +16 +16 1011.1 993.7 +8.2
09 14.07 З 1 н/о н/о +15.7 +7.5 58 +16 +16 1011.6 994.1
12 14.07 штиль 0 н/о н/о +17.9 +6.2 46 +18 +18 1011.1 993.7
15 14.07 ЮЗ 1 н/о н/о +19.9 +6.0 40 +22 +22 комфорт 1010.7 993.4
18 14.07 штиль 0 н/о н/о +14.2 +10.0 76 +14 +14 1011.5 994.0 +20.1
21 14.07 штиль 0 н/о н/о +12.2 +10.2 88 +12 +12 1011.6 994.0
00 15.07 штиль 0 н/о н/о +10.8 +9.2 90 +10 +10 1011.5 993.7
03 15.07 штиль 0 н/о н/о +10.7 +9.7 94 +10 +10 1011.6 993.9 +9.6
06 15.07 ЮВ 1 н/о н/о +18.1 +9.5 57 +19 +19 1011.2 993.9 +9.6
09 15.07 штиль 0 н/о н/о +18.7 +10.0 57 +19 +19 1011.2 993.9
12 15.07 ЮЗ 1 н/о н/о +18.9 +8.0 49 +21 +21 комфорт 1011.0 993.8
15 15.07 Ю 1 н/о н/о +18.5 +7.8 50 +20 +20 1011.0 993.7
18 15.07 штиль 0 н/о н/о +15.3 +10.0 71 +15 +15 1011.3 993.9 +19.8
21 15.07 штиль 0 н/о н/о +11.4 +9.8 90 +11 +11 1011.8 994.1
00 16.07 штиль 0 н/о н/о +11.1 +9.7 91 +10 +10 1012.0 994.2
03 16.07 штиль 0 н/о н/о +12.0 +10.7 92 +11 +11 1011.9 994.3 +10.5
06 16.07 В 1 н/о н/о +16.2 +10.7 70 +17 +17 1011.8 994.3 +10.5
09 16.07 В 2 н/о н/о +20.2 +10.7 54 +22 +22 комфорт 1010.7 993.5
12 16.07 В 1 н/о н/о +21.7 +11.5 52 +24 +24 комфорт 1009.7 992.6
15 16.07 ЮЗ 2 н/о н/о +18.0 +14.0 77 +19 +19 1010.2 993.0 0.8
18 16.07 Ю 1 н/о н/о +14.6 +13.2 91 +15 +15 1010.7 993.3 +22.2 15
21 16.07 штиль 0 н/о н/о +14.4 +13.2 92 +14 +14 1009.6 992.1
00 17.07 штиль 0 н/о н/о +14.2 +13.0 92 +14 +14 1009.6 992.1

 

Местоположение метеостанции Железнодорожный АМС (Московская область, Россия): широта 55.76 долгота 37.97 высота над уровнем моря 148 м.

В архиве по умолчанию представлена погода в Железнодорожном АМС за последнюю неделю. Архивные данные за месяц целиком и за предыдущие месяцы, начиная с января 2011 года, Вы можете получить, выбрав интересующий диапазон дат из раскрывающегося списка и нажав кнопку "Ввод!".


*Определитесь, кто Вы:
робот инопланетянин человек

Внимание! Время в таблицах - всемирное. Для получения местного времени необходимо прибавить поправку, которая равна 3 ч.

Смотрите также архив погоды в соседних городах и на ближайших метеорологических станциях:

Погода в Люберцах (Московская область, Россия) (9 км)
Погода в Электроуглях (Московская область, Россия) (19 км)
Погода в Москве (Балчуг) (город Москва, Россия) (21 км)
Погода в Москве (город Москва, Россия) (23 км)
Погода в Горках Ленинских (Московская область, Россия) (29 км)
Погода в Пушкино (Московская область, Россия) (31 км)
Погода в Электростали (Московская область, Россия) (33 км)
Погода в Москве (Бутово) (город Москва, Россия) (34 км)
Погода в Долгопрудном (Московская область, Россия) (34 км)
Погода в Москве (Тушино) (город Москва, Россия) (36 км)

Пояснения к столбцам:

Ветер - указаны скорость ветра в м/с - средняя за 10 мин, порывы в срок и между сроками (в фигурных скобках) и направление, откуда дует ветер: С - северный, СВ - северо-восточный, В - восточный, ЮВ - юго-восточный, Ю - южный, ЮЗ - юго-западный, З - западный, СЗ - северо-западный.
Видимость - горизонтальная дальность видимости в метрах или километрах. При видимости от 1 до 10 км при отсутствии осадков обычно наблюдается дымка, при ухудшении видимости до 1 км и менее - туман. В сухую погоду видимость может ухудшаться дымом, пылью или мглою.
Явления - указаны атмосферные явления, наблюдавшиеся в срок или в последний час перед сроком; фигурными скобками обозначены явления, наблюдавшиеся между сроками (за 1-3 часа до срока); квадратными скобками обозначены град или гололедные отложения с указанием их диаметра в мм.
Облачность - указаны через наклонную черту общая и нижняя облачность в баллах и высота нижней границы облаков в метрах; квадратными скобками обозначены формы облаков: Ci - перистые, Cs - перисто-слоистые, Cc - перисто-кучевые, Ac - высококучевые, As - высокослоистые, Sc - слоисто-кучевые, Ns - слоисто-дождевые, Cu - кучевые, Cb - кучево-дождевые. Подробнее классификацию облаков см. в Атласе облаков (PDF).
T - Температура воздуха - температура, измеренная на высоте 2 м над землей.
Td - Температура точки росы - температура, при понижении до которой содержащийся в воздухе водяной пар достигнет насыщения.
f - Относительная влажность воздуха - влажноcть воздуха, измеренная на высоте 2 м над землей.
Te - Эффективная температура - температура, которую ощущает одетый по сезону человек в тени. Характеристика душности погоды. При расчете учитывается влияние влажности воздуха и скорости ветра на теплоощущения человека.
Tes - Эффективная температура на солнце - температура, которую ощущает человек, с поправкой на солнечный нагрев. Характеристика знойности погоды. Зависит от высоты солнца над горизонтом, облачности и скорости ветра. Ночью, в пасмурную погоду, а также при ветре 12 м/с и более поправка равна нулю.
P - Атмосферное давление - приведенное к уровню моря атмосферное давление.
Po - Атмосферное давление - измеренное на уровне метеостанции атмосферное давление.
Tmin - Минимальная температура - минимум температуры воздуха на высоте 2 м над землей.
Tmax - Максимальная температура - максимум температуры воздуха на высоте 2 м над землей.
R - Количество осадков - Количество выпавших осадков за период времени, мм. При наведении курсора мыши на число - период времени, за который выпало указанное количество осадков.
R24 - Количество осадков - Количество выпавших осадков за 24 часа, мм.
S - Снежный покров - Высота снежного покрова, см. При наведении курсора мыши на число - состояние снежного покрова и степень покрытия местности в баллах.